Regional Weather Roundup
Issued by NWS

Home | Current Version | Previous Version | Graphics & Text | Print | Product List | Glossary On
Versions: 1 2 3 4 5 6 7 8 9 10 11 12 13 14 15 16 17 18 19 20 21 22 23 24 25 26 27
000
ASUS45 KBOI 052010
RWRID

IDAHO REGIONAL WEATHER ROUNDUP
NATIONAL WEATHER SERVICE BOISE ID
200 PM MDT THU MAY 05 2016

NOTE: "FAIR" INDICATES FEW OR NO CLOUDS BELOW 12000 FEET
WITH NO SIGNIFICANT WEATHER AND/OR OBSTRUCTIONS TO VISIBILITY

IDZ012-014-052100-
SOUTHWEST IDAHO


CITY           SKY/WX    TMP DP  RH WIND       PRES   REMARKS
BOISE          PTSUNNY   72  47  40 W3        29.80F
CALDWELL       PTSUNNY   71  48  43 NW8       29.80F
MOUNTAIN HOME  PTSUNNY   75  42  29 SE8       29.79F
$$

IDZ016-017-052100-
SOUTHCENTRAL IDAHO


CITY           SKY/WX    TMP DP  RH WIND       PRES   REMARKS
BURLEY         PTSUNNY   75  49  39 E8        29.83F
JEROME         PTSUNNY   74  47  38 E9        29.83F
TWIN FALLS     MOSUNNY   69  45  41 NE7       29.84F
$$

IDZ019>023-052100-
SOUTHEAST IDAHO


CITY           SKY/WX    TMP DP  RH WIND       PRES   REMARKS
IDAHO FALLS    CLOUDY    79  37  22 CALM      29.93F
POCATELLO      CLOUDY    81  31  16 S10       29.89F
REXBURG        CLOUDY    78  33  19 SW12      29.94F
$$

IDZ006-010-011-018-031-032-052100-
CENTRAL IDAHO MOUNTAINS


CITY           SKY/WX    TMP DP  RH WIND       PRES   REMARKS
MCCALL         CLOUDY    66  41  40 CALM      29.89F
HAILEY         MOSUNNY   72  41  33 SE15      29.93F
STANLEY          N/A     70  22  16 S13G22    29.96F
SALMON         CLOUDY    72  37  28 CALM      29.86F
CHALLIS        PTSUNNY   75  31  19 VRB5      29.88F
$$

IDZ002-004-006-007-026-052100-
NORTHERN IDAHO


CITY           SKY/WX    TMP DP  RH WIND       PRES   REMARKS
LEWISTON       MOSUNNY   75  52  44 VRB6      29.87S
LOWELL           N/A     75  53  46 SE6       29.79F
COEUR D`ALENE  SUNNY     70  50  49 NW3       29.89F
MULLAN PASS    PTSUNNY   57  41  55 N6        30.00F
$$




USA.gov is the U.S. government's official web portal to all federal, state and local government web resources and services.